DELTA 1 DEB, 19033

Orbit data source: Space-Track

DELTA 1 DEB, 19033 is space debris in SSO originally from a launch on Tue, 06 Nov 1973 UTC launched from the Air Force Western Test Range (AFWTR). Debris objects in space refer to the collection of defunct objects orbiting the Earth. Examples of debris include non-operational satellites, rocket bodies, and fragments generated from explosions, collisions, or faulty payload assembly.

Loading next visibility...
Identifier
19033, 1973-086HC
Orbit
SSO
Country
Flag of USUS
Related business
Manufacturer
Unknown
Mission
Spacecraft
Bus & Motor
Unknown
Mass
Unknown
Launch date (UTC)
1973-11-06 (53 years ago)
Launch vehicle
Unknown
Launch site
Air Force Western Test Range (AFWTR)
Object type
Payload
Rocket body
Debris
Shape & HBR
Unknown shape, 0.1 m
Radar Cross Section
Medium (>0.1 m² and <1 m²)

Expand to show TLE details & history
Last TLE update: 4 days ago

TLE from 4 days ago
0 DELTA 1 DEB
1 19033U 73086HC  26260.85421390  .00000261  00000-0  19220-2 0  9993
2 19033 101.9472 270.0907 0038266 316.1348 166.8009 12.53715604895396
Epoch: 2026-09-17T20:30Z
TLE epoch observation values (Epoch: 2026-09-17T20:30:04.080Z)
Latitude
55.19666°
Longitude
163.42102°
Altitude
1,487.099 km
Speed
7.112 km/s
True Right ascension
07h 10m 53s
True Declination
55° 03' 01"
Sunlit
Object was in daylight at epoch
Visualization orbit readout
Latitude
Unknown
Longitude
Unknown
Altitude
Unknown
Speed
Unknown
Apparent Right ascension
Unknown
Apparent Declination
Unknown
Sunlit
N/A
Visualization observer readout
Local Sidereal Time
14:52:58
Azimuth
Unknown
Elevation
Unknown
Doppler factor
Unknown
Orbital elements
Apogee altitude
1,476.487 km
Perigee altitude
1,416.604 km
Semi-major axis
7,824.683 km
Eccentricity
0.00383
Inclination
101.9472°
RAAN
270.0907°
Arg. of periapsis
316.1348°
True anomaly
166.90056°
Mean anomaly
166.8009°
Eccentric anomaly
166.85078°
Mean motion
3.13576 °/min
Orbital period
114.8 mins
BSTAR
0.001922
Loading maneuver chart data...
Computing Atmospheric mass density...
Loading historical data...
Loading historical data...
Loading historical data...
Loading historical data...
Loading historical data...
Loading historical data...
Loading historical data...

Documentation

Showing up to 5 results
|